Station History

Weather Underground - logo

Station Historical Data
Daily Summary for January 8, 2018 Units:  Metric    English   Both
« Previous Day
Next Day »
Daily Weekly Monthly Yearly Custom
  High: Low: Average:
Temperature: 17.2 °C 12.1 °C 14.7 °C
Dew Point: 15.6 °C 10.9 °C 13.6 °C
Humidity: 96 % 88 % 93 %
Wind Speed: 7.4 km/h 0 km/h 0.6 km/h
Wind Gust: 7.4 km/h - -
Wind:- - South
Pressure: 1015.8 hPa 1003.3 hPa -
Precipitation: 6.35 mm    
Historical Graphs
 
 
Tabular Data for January 8, 2018
Time Temperature Dew Point Pressure Wind Wind Speed Wind Gust Humidity Rainfall Rate (Hourly)
00:40 12.8 °C 11.2 °C 1015.8 hPa Calm     90 % 0 mm
01:00 12.8 °C 11.1 °C 1015.5 hPa Calm     89 % 0 mm
01:06 12.8 °C 11 °C 1015.5 hPa Calm     89 % 0 mm
01:13 12.7 °C 10.9 °C 1015.1 hPa Calm     89 % 0 mm
01:19 12.7 °C 11.1 °C 1015.1 hPa Calm     90 % 0 mm
01:24 12.8 °C 11.2 °C 1015.1 hPa Calm     90 % 0 mm
01:29 12.7 °C 11.1 °C 1015.1 hPa Calm     90 % 0 mm
01:34 12.7 °C 11.1 °C 1015.1 hPa Calm     90 % 0 mm
01:39 12.7 °C 11.1 °C 1015.1 hPa Calm     90 % 0 mm
01:43 12.6 °C 10.9 °C 1015.1 hPa Calm     90 % 0 mm
01:46 12.5 °C 10.9 °C 1015.1 hPa Calm     90 % 0 mm
01:52 12.5 °C 11.1 °C 1015.1 hPa Calm     91 % 0 mm
01:57 12.4 °C 11 °C 1015.1 hPa Calm     91 % 0 mm
01:58 12.4 °C 10.9 °C 1015.1 hPa Calm     91 % 0 mm
02:04 12.3 °C 10.9 °C 1014.8 hPa Calm     91 % 0 mm
02:08 12.3 °C 11 °C 1014.8 hPa Calm     92 % 0 mm
02:11 12.2 °C 10.9 °C 1014.8 hPa Calm     92 % 0 mm
02:16 12.2 °C 10.9 °C 1014.8 hPa Calm     92 % 0 mm
02:20 12.2 °C 10.9 °C 1014.8 hPa Calm     92 % 0 mm
02:22 12.2 °C 10.9 °C 1014.8 hPa Calm     92 % 0 mm
02:27 12.2 °C 10.9 °C 1014.8 hPa Calm     92 % 0 mm
02:32 12.2 °C 10.9 °C 1014.8 hPa Calm     92 % 0 mm
02:38 12.1 °C 11 °C 1014.8 hPa Calm     93 % 0 mm
02:43 12.1 °C 11 °C 1014.4 hPa Calm     93 % 0 mm
02:48 12.1 °C 11 °C 1014.4 hPa Calm     93 % 0 mm
02:53 12.2 °C 11.1 °C 1014.4 hPa Calm     93 % 0 mm
02:57 12.2 °C 11.1 °C 1014.4 hPa Calm     93 % 0 mm
03:02 12.3 °C 11.2 °C 1014.4 hPa Calm     93 % 0 mm
03:07 12.3 °C 11.2 °C 1014.4 hPa Calm     93 % 0 mm
03:09 12.3 °C 11.2 °C 1014.4 hPa Calm     93 % 0 mm
03:14 12.3 °C 11.2 °C 1014.1 hPa Calm     93 % 0 mm
03:19 12.4 °C 11.3 °C 1014.1 hPa Calm     93 % 0 mm
03:24 12.5 °C 11.4 °C 1014.1 hPa Calm     93 % 0 mm
03:29 12.5 °C 11.4 °C 1014.1 hPa Calm     93 % 0 mm
03:34 12.6 °C 11.4 °C 1014.1 hPa East 1.9 km/h   93 % 0 mm
03:39 12.6 °C 11.5 °C 1014.1 hPa Calm     93 % 0 mm
03:45 12.6 °C 11.5 °C 1014.1 hPa Calm     93 % 0 mm
03:50 12.6 °C 11.5 °C 1014.1 hPa Calm     93 % 0 mm
03:55 12.6 °C 11.5 °C 1014.1 hPa Calm     93 % 0 mm
03:58 12.6 °C 11.7 °C 1013.8 hPa Calm     94 % 0 mm
04:04 12.7 °C 11.7 °C 1013.8 hPa Calm     94 % 0 mm
04:10 12.6 °C 11.7 °C 1014.1 hPa Calm     94 % 0 mm
04:15 12.6 °C 11.6 °C 1013.8 hPa Calm     94 % 0.25 mm
04:20 12.5 °C 11.6 °C 1013.8 hPa Calm     94 % 0.25 mm
04:26 12.4 °C 11.5 °C 1013.8 hPa Calm     94 % 0.25 mm
04:31 12.5 °C 11.6 °C 1013.8 hPa Calm     94 % 0.51 mm
04:37 12.5 °C 11.7 °C 1014.1 hPa Calm     95 % 0.51 mm
04:42 12.5 °C 11.7 °C 1014.1 hPa Calm     95 % 0.51 mm
04:46 12.5 °C 11.7 °C 1014.1 hPa Calm     95 % 0.76 mm
04:52 12.5 °C 11.7 °C 1014.1 hPa Calm     95 % 0.76 mm
04:57 12.5 °C 11.7 °C 1014.1 hPa Calm     95 % 1.02 mm
05:04 12.5 °C 11.7 °C 1014.1 hPa Calm     95 % 1.02 mm
05:06 12.5 °C 11.7 °C 1014.1 hPa Calm     95 % 1.27 mm
05:12 12.5 °C 11.7 °C 1014.1 hPa Calm     95 % 1.02 mm
05:15 12.4 °C 11.7 °C 1014.1 hPa Calm     95 % 1.27 mm
05:20 12.3 °C 11.6 °C 1014.1 hPa NNW 1.9 km/h 1.9 km/h 95 % 1.27 mm
05:26 12.3 °C 11.4 °C 1014.1 hPa Calm     94 % 1.27 mm
05:32 12.4 °C 11.4 °C 1014.4 hPa Calm     94 % 1.02 mm
05:37 12.3 °C 11.4 °C 1014.4 hPa Calm     94 % 1.27 mm
05:43 12.3 °C 11.4 °C 1014.4 hPa NW 1.9 km/h 1.9 km/h 94 % 1.27 mm
05:50 12.3 °C 11.4 °C 1014.8 hPa NW 1.9 km/h 1.9 km/h 94 % 1.02 mm
05:55 12.3 °C 11.5 °C 1014.8 hPa NW 1.9 km/h   95 % 1.27 mm
05:59 12.3 °C 11.5 °C 1014.8 hPa North 1.9 km/h 1.9 km/h 95 % 1.02 mm
06:02 12.3 °C 11.5 °C 1014.8 hPa WNW 1.9 km/h 1.9 km/h 95 % 1.02 mm
06:07 12.3 °C 11.3 °C 1015.1 hPa Calm     94 % 1.02 mm
06:10 12.2 °C 11.3 °C 1015.1 hPa Calm     94 % 1.02 mm
06:15 12.2 °C 11.3 °C 1015.1 hPa Calm     94 % 1.02 mm
06:21 12.3 °C 11.3 °C 1015.1 hPa Calm     94 % 0.76 mm
06:27 12.3 °C 11.3 °C 1015.1 hPa WNW 1.9 km/h   94 % 1.02 mm
06:31 12.3 °C 11.5 °C 1015.1 hPa Calm     95 % 1.02 mm
06:37 12.3 °C 11.5 °C 1014.8 hPa NW 1.9 km/h 1.9 km/h 95 % 0.76 mm
06:42 12.2 °C 11.4 °C 1014.8 hPa Calm     95 % 0.76 mm
06:47 12.2 °C 11.4 °C 1014.8 hPa WNW 1.9 km/h 1.9 km/h 95 % 0.76 mm
06:54 12.2 °C 11.3 °C 1014.8 hPa Calm   0.2 km/h 94 % 0.76 mm
07:00 12.2 °C 11.3 °C 1014.8 hPa WNW 1.9 km/h 1.9 km/h 94 % 0.76 mm
07:06 12.3 °C 11.2 °C 1014.4 hPa Calm     93 % 0.51 mm
07:12 12.3 °C 11.2 °C 1014.4 hPa Calm     93 % 0.51 mm
07:18 12.2 °C 11.1 °C 1014.4 hPa Calm     93 % 0.51 mm
07:23 12.2 °C 11.1 °C 1014.4 hPa Calm     93 % 0.51 mm
07:28 12.2 °C 11.1 °C 1014.4 hPa Calm     93 % 0.25 mm
07:34 12.2 °C 11.1 °C 1014.4 hPa Calm     93 % 0.25 mm
07:39 12.2 °C 11.1 °C 1014.4 hPa Calm     93 % 0.25 mm
07:41 12.2 °C 11.3 °C 1014.4 hPa Calm     94 % 0.25 mm
07:46 12.3 °C 11.3 °C 1014.1 hPa Calm     94 % 0.25 mm
07:54 12.4 °C 11.4 °C 1014.4 hPa Calm     94 % 0 mm
07:55 12.4 °C 11.5 °C 1014.4 hPa Calm     94 % 0 mm
08:00 12.4 °C 11.5 °C 1014.1 hPa Calm     94 % 0 mm
08:07 12.5 °C 11.7 °C 1014.1 hPa Calm     95 % 0 mm
08:13 12.6 °C 11.8 °C 1014.1 hPa SE 1.9 km/h 1.9 km/h 95 % 0 mm
08:19 12.7 °C 11.9 °C 1014.1 hPa ESE 1.9 km/h   95 % 0 mm
08:25 12.8 °C 12 °C 1014.1 hPa East 1.6 km/h 1.6 km/h 95 % 0 mm
08:30 12.8 °C 12.1 °C 1014.1 hPa East 1.9 km/h   95 % 0 mm
08:35 12.8 °C 12.1 °C 1014.1 hPa Calm     95 % 0 mm
08:42 12.9 °C 12.1 °C 1014.1 hPa Calm     95 % 0 mm
08:43 12.9 °C 12.1 °C 1014.1 hPa Calm     95 % 0 mm
08:46 12.9 °C 12.3 °C 1014.1 hPa Calm     96 % 0 mm
08:48 12.9 °C 12.3 °C 1014.1 hPa Calm     96 % 0 mm
08:53 13 °C 12.4 °C 1014.1 hPa Calm     96 % 0 mm
08:59 13.1 °C 12.4 °C 1014.1 hPa Calm     96 % 0.25 mm
09:04 13.1 °C 12.5 °C 1014.1 hPa Calm     96 % 0.25 mm
09:06 13.1 °C 12.5 °C 1013.8 hPa Calm     96 % 0.25 mm
09:11 13.2 °C 12.6 °C 1014.1 hPa Calm     96 % 0.25 mm
09:16 13.3 °C 12.7 °C 1013.8 hPa Calm     96 % 0.25 mm
09:20 13.4 °C 12.8 °C 1013.8 hPa Calm     96 % 0.25 mm
09:23 13.4 °C 12.8 °C 1013.8 hPa Calm     96 % 0.25 mm
09:28 13.4 °C 12.8 °C 1013.8 hPa Calm     96 % 0.25 mm
09:29 13.4 °C 12.8 °C 1013.8 hPa Calm     96 % 0.25 mm
09:34 13.5 °C 12.9 °C 1013.8 hPa East 1.9 km/h 1.9 km/h 96 % 0.25 mm
09:36 13.6 °C 12.9 °C 1013.8 hPa Calm     96 % 0.25 mm
09:41 13.6 °C 13 °C 1013.8 hPa NNW 1.6 km/h 1.6 km/h 96 % 0.25 mm
09:44 13.7 °C 13.1 °C 1013.4 hPa NNW 1.9 km/h   96 % 0.25 mm
09:49 13.7 °C 13.1 °C 1013.4 hPa Calm     96 % 0.51 mm
09:54 13.9 °C 13.3 °C 1013.4 hPa Calm     96 % 0.51 mm
10:00 14 °C 13.4 °C 1013.4 hPa Calm     96 % 0.25 mm
10:03 14.1 °C 13.4 °C 1013.4 hPa Calm     96 % 0.25 mm
10:08 14.1 °C 13.3 °C 1013.4 hPa Calm     95 % 0.25 mm
10:12 14.2 °C 13.4 °C 1013.4 hPa Calm     95 % 0.25 mm
10:14 14.2 °C 13.4 °C 1013.4 hPa Calm     95 % 0.25 mm
10:19 14.3 °C 13.6 °C 1013.1 hPa NNW 1.9 km/h 1.9 km/h 95 % 0.25 mm
10:23 14.4 °C 13.4 °C 1013.1 hPa NW 1.9 km/h 1.9 km/h 94 % 0.25 mm
10:25 14.4 °C 13.5 °C 1013.1 hPa NW 1.9 km/h   94 % 0.25 mm
10:30 14.6 °C 13.6 °C 1013.1 hPa Calm     94 % 0.25 mm
10:32 14.6 °C 13.7 °C 1013.1 hPa Calm     94 % 0.25 mm
10:33 14.6 °C 13.7 °C 1013.1 hPa Calm     94 % 0.25 mm
10:39 14.7 °C 13.6 °C 1013.1 hPa Calm     93 % 0.25 mm
10:44 14.8 °C 13.7 °C 1013.1 hPa Calm     93 % 0.25 mm
10:49 14.8 °C 13.7 °C 1012.8 hPa Calm     93 % 0 mm
10:54 14.9 °C 13.8 °C 1012.8 hPa Calm     93 % 0 mm
10:59 14.9 °C 13.8 °C 1012.8 hPa Calm     93 % 0 mm
11:04 15 °C 13.9 °C 1012.8 hPa Calm     93 % 0 mm
11:10 15.1 °C 13.9 °C 1012.4 hPa Calm     93 % 0 mm
11:16 15.2 °C 14.1 °C 1012.4 hPa Calm     93 % 0.25 mm
11:20 15.3 °C 14.2 °C 1012.1 hPa Calm     93 % 0.25 mm
11:26 15.4 °C 14.3 °C 1012.1 hPa Calm     93 % 0.25 mm
11:30 15.4 °C 14.5 °C 1011.7 hPa Calm     94 % 0.25 mm
11:35 15.6 °C 14.4 °C 1011.7 hPa Calm     93 % 0.25 mm
11:40 15.6 °C 14.5 °C 1012.1 hPa Calm     93 % 0.25 mm
11:45 15.7 °C 14.6 °C 1011.7 hPa Calm     93 % 0.25 mm
11:50 15.7 °C 14.6 °C 1011.7 hPa NW 1.9 km/h   93 % 0.25 mm
11:56 15.7 °C 14.6 °C 1011.7 hPa Calm     93 % 0.25 mm
12:01 15.7 °C 14.6 °C 1011.7 hPa Calm     93 % 0.25 mm
12:06 15.8 °C 14.7 °C 1011.7 hPa NW 1.9 km/h   93 % 0.25 mm
12:12 15.8 °C 14.7 °C 1011.4 hPa WNW 3.7 km/h 3.7 km/h 93 % 0.25 mm
12:17 15.8 °C 14.7 °C 1011.4 hPa Calm     93 % 0 mm
12:25 15.8 °C 14.7 °C 1011.4 hPa Calm     93 % 0 mm
12:30 15.7 °C 14.4 °C 1011.1 hPa Calm     92 % 0 mm
12:36 15.6 °C 14.3 °C 1011.1 hPa Calm     92 % 0 mm
12:41 15.6 °C 14.5 °C 1010.7 hPa Calm     93 % 0 mm
12:52 15.7 °C 14.6 °C 1010.7 hPa Calm     93 % 0 mm
13:05 15.7 °C 14.6 °C 1010.4 hPa Calm     93 % 0 mm
13:13 15.7 °C 14.4 °C 1010 hPa NW 3.2 km/h 3.2 km/h 92 % 0 mm
13:20 15.8 °C 14.7 °C 1009.7 hPa NW 3.2 km/h 3.2 km/h 93 % 0.25 mm
13:26 16 °C 14.9 °C 1009.7 hPa WNW 3.7 km/h 3.7 km/h 93 % 0.25 mm
13:31 16.1 °C 14.8 °C 1010 hPa WNW 1.6 km/h 1.6 km/h 92 % 0.25 mm
13:33 16.1 °C 14.8 °C 1009.7 hPa WNW 1.9 km/h 1.9 km/h 92 % 0.25 mm
13:39 16.2 °C 14.7 °C 1009.7 hPa NW 7.4 km/h 7.4 km/h 91 % 0.25 mm
13:43 16.3 °C 14.8 °C 1009.7 hPa NW 3.7 km/h 3.7 km/h 91 % 0.25 mm
13:48 16.3 °C 14.7 °C 1009.4 hPa NW 3.7 km/h 3.7 km/h 90 % 0.25 mm
13:53 16.6 °C 14.9 °C 1009.4 hPa NW 3.7 km/h 3.7 km/h 90 % 0.25 mm
13:59 16.7 °C 14.8 °C 1009 hPa NE 5.6 km/h 5.6 km/h 89 % 0.25 mm
14:04 16.7 °C 15.1 °C 1009 hPa North 4.8 km/h 4.8 km/h 90 % 0.25 mm
14:09 16.7 °C 15.1 °C 1009 hPa NNW 5.6 km/h 5.6 km/h 90 % 0.25 mm
14:12 16.7 °C 15.1 °C 1009 hPa NW 5.6 km/h 5.6 km/h 90 % 0.25 mm
14:17 16.7 °C 14.9 °C 1009 hPa NNW 3.7 km/h 3.7 km/h 89 % 0 mm
14:23 16.7 °C 15.1 °C 1008.7 hPa NW 1.9 km/h 1.9 km/h 90 % 0 mm
14:28 16.7 °C 14.9 °C 1008.7 hPa WNW 5.6 km/h 5.6 km/h 89 % 0 mm
14:34 16.8 °C 14.9 °C 1008.7 hPa WNW 5.6 km/h 5.6 km/h 89 % 0 mm
14:40 16.9 °C 15.1 °C 1008.7 hPa NNW 5.6 km/h 5.6 km/h 89 % 0 mm
14:46 17 °C 15.2 °C 1008.4 hPa NW 3.7 km/h 3.7 km/h 89 % 0 mm
14:53 17.1 °C 15.2 °C 1008.4 hPa NW 5.6 km/h 5.6 km/h 89 % 0 mm
14:54 17.1 °C 15.2 °C 1008.4 hPa NW 5.6 km/h 5.6 km/h 89 % 0 mm
14:56 17.1 °C 15.3 °C 1008.4 hPa NW 3.7 km/h 3.7 km/h 89 % 0 mm
14:57 17.1 °C 15.2 °C 1008.4 hPa North 3.7 km/h 3.7 km/h 89 % 0 mm
14:58 17.1 °C 15.2 °C 1008.4 hPa WNW 3.7 km/h 3.7 km/h 89 % 0 mm
15:00 17.1 °C 15.3 °C 1008 hPa WNW 3.7 km/h 3.7 km/h 89 % 0 mm
15:01 17.1 °C 15.2 °C 1008 hPa NW 1.9 km/h 1.9 km/h 89 % 0 mm
15:03 17.1 °C 15.3 °C 1008 hPa NW 1.9 km/h 1.9 km/h 89 % 0 mm
15:08 17.1 °C 15.1 °C 1008.4 hPa Calm   0.3 km/h 88 % 0 mm
15:11 17.2 °C 15.2 °C 1008.4 hPa WNW 1.9 km/h 1.9 km/h 88 % 0 mm
15:13 17.2 °C 15.2 °C 1008.4 hPa WNW 1.9 km/h   88 % 0 mm
15:17 17.2 °C 15.2 °C 1008.4 hPa Calm     88 % 0 mm
15:18 17.2 °C 15.2 °C 1008.4 hPa Calm     88 % 0 mm
15:19 17.2 °C 15.2 °C 1008.4 hPa Calm     88 % 0 mm
15:23 17.2 °C 15.3 °C 1008.4 hPa Calm     89 % 0 mm
15:28 17.1 °C 15.3 °C 1008.4 hPa Calm     89 % 0 mm
15:32 17 °C 15.3 °C 1008.4 hPa Calm     90 % 0 mm
15:36 16.9 °C 15.2 °C 1008.4 hPa SW 1.9 km/h 1.9 km/h 90 % 0.25 mm
15:38 16.9 °C 15.4 °C 1008.7 hPa East 1.9 km/h 1.9 km/h 91 % 0.25 mm
15:40 16.8 °C 15.3 °C 1008.7 hPa East 1.9 km/h   91 % 0.25 mm
15:44 16.7 °C 15.3 °C 1008.7 hPa East 1.9 km/h   92 % 0.51 mm
15:48 16.6 °C 15.4 °C 1008.7 hPa Calm     93 % 0.51 mm
15:50 16.5 °C 15.4 °C 1008.7 hPa East 1.9 km/h 1.9 km/h 93 % 0.51 mm
15:51 16.5 °C 15.4 °C 1008.7 hPa East 1.9 km/h   93 % 0.51 mm
15:53 16.4 °C 15.5 °C 1008.7 hPa Calm   0.2 km/h 94 % 0.76 mm
15:55 16.4 °C 15.5 °C 1008.7 hPa Calm     94 % 0.76 mm
15:59 16.4 °C 15.5 °C 1008.7 hPa East 3.7 km/h 3.7 km/h 94 % 0.76 mm
16:03 16.4 °C 15.4 °C 1008.7 hPa East 3.7 km/h 3.7 km/h 94 % 0.76 mm
16:04 16.4 °C 15.4 °C 1008.7 hPa East 1.9 km/h 1.9 km/h 94 % 1.02 mm
16:05 16.3 °C 15.6 °C 1009 hPa East 1.9 km/h 1.9 km/h 95 % 1.02 mm
16:10 16.3 °C 15.6 °C 1008.7 hPa East 1.9 km/h   95 % 1.02 mm
16:11 16.3 °C 15.5 °C 1008.7 hPa East 1.9 km/h 1.9 km/h 95 % 1.02 mm
16:13 16.3 °C 15.5 °C 1008.7 hPa East 1.9 km/h 1.9 km/h 95 % 1.27 mm
16:14 16.3 °C 15.5 °C 1008.7 hPa East 1.9 km/h 1.9 km/h 95 % 1.27 mm
16:15 16.3 °C 15.5 °C 1008.7 hPa East 1.9 km/h 1.9 km/h 95 % 1.27 mm
16:16 16.3 °C 15.5 °C 1008.7 hPa East 1.9 km/h 1.9 km/h 95 % 1.27 mm
16:18 16.3 °C 15.5 °C 1008.7 hPa East 1.9 km/h 1.9 km/h 95 % 1.27 mm
16:20 16.3 °C 15.5 °C 1008.7 hPa East 1.9 km/h   95 % 1.27 mm
16:21 16.2 °C 15.4 °C 1008.7 hPa East 1.9 km/h 1.9 km/h 95 % 1.27 mm
16:23 16.2 °C 15.4 °C 1008.7 hPa Calm     95 % 1.27 mm
16:24 16.2 °C 15.4 °C 1008.7 hPa East 1.9 km/h   95 % 1.27 mm
16:25 16.2 °C 15.4 °C 1008.7 hPa East 1.9 km/h   95 % 1.27 mm
16:30 16.2 °C 15.4 °C 1008.7 hPa East 1.9 km/h 1.9 km/h 95 % 1.52 mm
16:33 16.2 °C 15.4 °C 1009 hPa East 1.9 km/h 1.9 km/h 95 % 1.52 mm
16:36 16.1 °C 15.3 °C 1008.7 hPa East 1.9 km/h 1.9 km/h 95 % 1.27 mm
16:38 16.1 °C 15.3 °C 1008.7 hPa East 1.9 km/h 1.9 km/h 95 % 1.27 mm
16:43 16 °C 15.2 °C 1008.7 hPa ESE 3.7 km/h 3.7 km/h 95 % 1.27 mm
16:49 15.9 °C 15.2 °C 1008.7 hPa ESE 1.9 km/h 1.9 km/h 95 % 1.02 mm
16:50 15.9 °C 15.2 °C 1008.7 hPa SE 1.9 km/h 1.9 km/h 95 % 1.27 mm
16:53 15.9 °C 14.9 °C 1008.7 hPa ESE 1.9 km/h 1.9 km/h 94 % 1.02 mm
16:55 15.9 °C 14.9 °C 1008.7 hPa SE 1.9 km/h 1.9 km/h 94 % 1.02 mm
16:57 15.8 °C 14.9 °C 1008.7 hPa SE 1.9 km/h   94 % 1.02 mm
16:58 15.8 °C 14.9 °C 1008.7 hPa SE 1.9 km/h 1.9 km/h 94 % 1.02 mm
16:59 15.8 °C 14.9 °C 1008.4 hPa ESE 3.7 km/h   94 % 1.02 mm
17:01 15.8 °C 14.9 °C 1008.4 hPa SE 1.6 km/h   94 % 1.02 mm
17:03 15.8 °C 14.9 °C 1008.4 hPa Calm     94 % 0.76 mm
17:04 15.8 °C 14.9 °C 1008.4 hPa Calm     94 % 0.76 mm
17:05 15.8 °C 14.9 °C 1008.4 hPa Calm     94 % 0.76 mm
17:06 15.8 °C 14.9 °C 1008.4 hPa Calm     94 % 0.76 mm
17:07 15.8 °C 14.9 °C 1008.4 hPa Calm     94 % 0.76 mm
17:09 15.8 °C 14.8 °C 1008.4 hPa Calm     94 % 0.76 mm
17:10 15.8 °C 14.8 °C 1008.4 hPa Calm     94 % 0.76 mm
17:11 15.8 °C 14.8 °C 1008.4 hPa Calm     94 % 0.76 mm
17:12 15.8 °C 14.8 °C 1008.4 hPa East 1.9 km/h 1.9 km/h 94 % 0.76 mm
17:14 15.7 °C 14.8 °C 1008.4 hPa East 1.9 km/h 1.9 km/h 94 % 0.51 mm
17:15 15.8 °C 14.8 °C 1008.4 hPa SE 1.9 km/h 1.9 km/h 94 % 0.51 mm
17:17 15.7 °C 14.8 °C 1008.4 hPa East 1.9 km/h   94 % 0.51 mm
17:18 15.7 °C 14.8 °C 1008.4 hPa East 1.9 km/h   94 % 0.51 mm
17:19 15.7 °C 14.8 °C 1008 hPa Calm     94 % 0.51 mm
17:20 15.7 °C 14.8 °C 1008 hPa Calm     94 % 0.51 mm
17:23 15.7 °C 14.8 °C 1008 hPa SE 1.9 km/h 1.9 km/h 94 % 0.76 mm
17:24 15.7 °C 14.7 °C 1008 hPa SE 1.9 km/h 1.9 km/h 94 % 0.76 mm
17:26 15.7 °C 14.7 °C 1008 hPa Calm     94 % 0.76 mm
17:27 15.6 °C 14.7 °C 1008 hPa ENE 1.9 km/h 1.9 km/h 94 % 0.76 mm
17:28 15.6 °C 14.7 °C 1008 hPa ENE 1.9 km/h 1.9 km/h 94 % 0.76 mm
17:30 15.6 °C 14.7 °C 1008 hPa ENE 1.9 km/h 1.9 km/h 94 % 0.51 mm
17:31 15.7 °C 14.7 °C 1008 hPa ESE 3.7 km/h 3.7 km/h 94 % 0.51 mm
17:32 15.7 °C 14.7 °C 1008 hPa ESE 3.7 km/h 3.7 km/h 94 % 0.51 mm
17:33 15.7 °C 14.8 °C 1008 hPa East 3.7 km/h 3.7 km/h 94 % 0.51 mm
17:34 15.7 °C 14.8 °C 1008 hPa East 3.7 km/h 3.7 km/h 94 % 0.51 mm
17:37 15.8 °C 14.7 °C 1007.7 hPa SE 3.2 km/h 3.2 km/h 93 % 0.51 mm
17:43 15.9 °C 14.6 °C 1007.7 hPa SE 1.9 km/h 1.9 km/h 92 % 0.51 mm
17:45 15.9 °C 14.6 °C 1008 hPa East 3.7 km/h 3.7 km/h 92 % 0.51 mm
17:48 15.9 °C 14.7 °C 1007.7 hPa ESE 3.7 km/h 3.7 km/h 92 % 0.51 mm
17:52 15.9 °C 14.7 °C 1007.7 hPa ESE 3.7 km/h 3.7 km/h 92 % 0.25 mm
17:54 16 °C 14.6 °C 1007.7 hPa East 3.2 km/h 3.2 km/h 91 % 0.25 mm
17:56 16.1 °C 14.6 °C 1007.7 hPa East 3.2 km/h 3.2 km/h 91 % 0.25 mm
17:58 16.1 °C 14.6 °C 1007.7 hPa ESE 1.9 km/h 1.9 km/h 91 % 0.25 mm
18:01 16.1 °C 14.7 °C 1007.7 hPa East 1.9 km/h   91 % 0.51 mm
18:03 16.1 °C 14.7 °C 1007.7 hPa ESE 1.6 km/h 1.6 km/h 91 % 0.51 mm
18:07 16.1 °C 14.6 °C 1007.7 hPa Calm     91 % 0.51 mm
18:09 16 °C 14.6 °C 1007.7 hPa Calm     91 % 0.51 mm
18:12 15.9 °C 14.7 °C 1007.7 hPa Calm     92 % 0.51 mm
18:15 15.9 °C 14.6 °C 1007.7 hPa Calm     92 % 0.51 mm
18:18 15.8 °C 14.6 °C 1007.7 hPa Calm     92 % 0.76 mm
18:20 15.8 °C 14.5 °C 1007.7 hPa Calm     92 % 0.76 mm
18:22 15.7 °C 14.4 °C 1007.7 hPa Calm     92 % 0.51 mm
18:23 15.7 °C 14.4 °C 1007.7 hPa Calm     92 % 0.51 mm
18:24 15.7 °C 14.4 °C 1007.7 hPa Calm     92 % 0.51 mm
18:25 15.6 °C 14.3 °C 1007.3 hPa Calm     92 % 0.51 mm
18:26 15.6 °C 14.3 °C 1007.3 hPa Calm     92 % 0.51 mm
18:27 15.6 °C 14.5 °C 1007.3 hPa Calm     93 % 0.51 mm
18:28 15.6 °C 14.4 °C 1007.3 hPa Calm     93 % 0.51 mm
18:29 15.6 °C 14.4 °C 1007.7 hPa Calm     93 % 0.51 mm
18:30 15.5 °C 14.4 °C 1007.3 hPa Calm     93 % 0.51 mm
18:31 15.5 °C 14.4 °C 1007.3 hPa Calm     93 % 0.51 mm
18:32 15.5 °C 14.4 °C 1007.3 hPa Calm     93 % 0.51 mm
18:33 15.5 °C 14.4 °C 1007.3 hPa Calm     93 % 0.51 mm
18:34 15.4 °C 14.3 °C 1007.3 hPa Calm     93 % 0.51 mm
18:35 15.4 °C 14.3 °C 1007.3 hPa Calm     93 % 0.51 mm
18:37 15.4 °C 14.3 °C 1007.3 hPa Calm     93 % 0.51 mm
18:38 15.4 °C 14.3 °C 1007.3 hPa Calm     93 % 0.51 mm
18:39 15.4 °C 14.3 °C 1007.3 hPa Calm     93 % 0.51 mm
18:40 15.4 °C 14.3 °C 1007.3 hPa Calm     93 % 0.51 mm
18:41 15.4 °C 14.3 °C 1007.3 hPa Calm     93 % 0.51 mm
18:42 15.4 °C 14.3 °C 1007.3 hPa Calm     93 % 0.51 mm
18:43 15.4 °C 14.3 °C 1007.3 hPa Calm     93 % 0.51 mm
18:44 15.4 °C 14.4 °C 1007.3 hPa Calm     94 % 0.51 mm
18:45 15.4 °C 14.4 °C 1007.3 hPa Calm     94 % 0.51 mm
18:46 15.4 °C 14.4 °C 1007.3 hPa Calm     94 % 0.51 mm
18:50 15.3 °C 14.4 °C 1007.3 hPa Calm     94 % 0.51 mm
18:53 15.3 °C 14.3 °C 1007 hPa Calm     94 % 0.51 mm
18:55 15.3 °C 14.3 °C 1007 hPa Calm     94 % 0.51 mm
18:57 15.3 °C 14.3 °C 1007 hPa Calm     94 % 0.51 mm
18:58 15.3 °C 14.3 °C 1007 hPa Calm     94 % 0.51 mm
18:59 15.3 °C 14.3 °C 1007 hPa Calm     94 % 0.51 mm
19:00 15.3 °C 14.3 °C 1007 hPa Calm     94 % 0.25 mm
19:01 15.3 °C 14.3 °C 1007 hPa Calm     94 % 0.25 mm
19:02 15.3 °C 14.3 °C 1007 hPa Calm     94 % 0.25 mm
19:03 15.3 °C 14.3 °C 1007 hPa Calm     94 % 0.25 mm
19:05 15.2 °C 14.3 °C 1007 hPa Calm     94 % 0.25 mm
19:06 15.2 °C 14.3 °C 1007 hPa Calm     94 % 0.25 mm
19:07 15.2 °C 14.3 °C 1007 hPa Calm     94 % 0.25 mm
19:08 15.2 °C 14.3 °C 1007 hPa Calm     94 % 0.25 mm
19:10 15.2 °C 14.3 °C 1007 hPa Calm     94 % 0.25 mm
19:11 15.2 °C 14.4 °C 1007 hPa Calm     95 % 0.25 mm
19:12 15.2 °C 14.4 °C 1007 hPa Calm     95 % 0.25 mm
19:13 15.2 °C 14.4 °C 1007 hPa Calm     95 % 0.25 mm
19:15 15.2 °C 14.4 °C 1007 hPa ESE 1.9 km/h   95 % 0.25 mm
19:16 15.2 °C 14.4 °C 1007 hPa Calm     95 % 0.25 mm
19:17 15.2 °C 14.4 °C 1007 hPa Calm     95 % 0 mm
19:18 15.2 °C 14.4 °C 1007 hPa Calm     95 % 0 mm
19:19 15.2 °C 14.4 °C 1007 hPa Calm     95 % 0 mm
19:21 15.2 °C 14.4 °C 1007 hPa Calm     95 % 0 mm
19:23 15.1 °C 14.3 °C 1007 hPa Calm     95 % 0 mm
19:24 15.1 °C 14.3 °C 1007 hPa Calm     95 % 0 mm
19:25 15.1 °C 14.3 °C 1007 hPa Calm   0.3 km/h 95 % 0 mm
19:26 15.2 °C 14.4 °C 1007 hPa ESE 1.9 km/h   95 % 0 mm
19:27 15.2 °C 14.4 °C 1007 hPa Calm     95 % 0 mm
19:28 15.2 °C 14.4 °C 1007 hPa Calm     95 % 0 mm
19:29 15.2 °C 14.4 °C 1007 hPa Calm     95 % 0 mm
19:30 15.2 °C 14.4 °C 1007 hPa Calm     95 % 0 mm
19:33 15.1 °C 14.3 °C 1007 hPa Calm     95 % 0 mm
19:34 15.1 °C 14.3 °C 1007 hPa Calm     95 % 0 mm
19:36 15.1 °C 14.3 °C 1007 hPa Calm     95 % 0 mm
19:38 15.1 °C 14.3 °C 1007 hPa Calm     95 % 0 mm
19:39 15.1 °C 14.3 °C 1007 hPa Calm     95 % 0 mm
19:41 15.1 °C 14.3 °C 1007 hPa Calm     95 % 0 mm
19:42 15 °C 14.2 °C 1007 hPa Calm     95 % 0 mm
19:46 15 °C 14.2 °C 1007 hPa Calm     95 % 0 mm
19:48 15 °C 14.2 °C 1007 hPa Calm     95 % 0 mm
19:49 14.9 °C 14.2 °C 1007 hPa Calm     95 % 0 mm
19:51 14.9 °C 14.1 °C 1007 hPa Calm     95 % 0 mm
19:52 14.9 °C 14.1 °C 1007 hPa Calm     95 % 0 mm
19:55 14.8 °C 14.1 °C 1007 hPa Calm     95 % 0 mm
19:59 14.9 °C 14.1 °C 1007 hPa ESE 1.9 km/h 1.9 km/h 95 % 0 mm
20:00 14.9 °C 14.1 °C 1007 hPa Calm   0.2 km/h 95 % 0 mm
20:01 14.9 °C 14.1 °C 1007 hPa East 3.7 km/h 3.7 km/h 95 % 0 mm
20:02 14.9 °C 14.2 °C 1007 hPa East 3.7 km/h 3.7 km/h 95 % 0 mm
20:03 15 °C 14.2 °C 1007 hPa East 1.9 km/h   95 % 0 mm
20:04 15 °C 14.2 °C 1007 hPa Calm     95 % 0 mm
20:05 15 °C 14.1 °C 1007 hPa Calm     94 % 0 mm
20:06 15 °C 14.1 °C 1007 hPa Calm     94 % 0 mm
20:09 15 °C 14.1 °C 1006.7 hPa Calm     94 % 0 mm
20:11 15 °C 14.1 °C 1006.7 hPa Calm     94 % 0 mm
20:12 15 °C 14.1 °C 1006.7 hPa Calm     94 % 0 mm
20:13 15 °C 14.1 °C 1006.7 hPa Calm     94 % 0 mm
20:14 15 °C 14.1 °C 1006.7 hPa Calm     94 % 0 mm
20:15 15 °C 14.1 °C 1006.7 hPa Calm     94 % 0 mm
20:16 15 °C 14.1 °C 1006.7 hPa Calm     94 % 0 mm
20:17 15 °C 14.1 °C 1006.7 hPa Calm     94 % 0 mm
20:18 15 °C 14.1 °C 1006.7 hPa Calm     94 % 0 mm
20:19 15 °C 14.1 °C 1006.7 hPa Calm     94 % 0 mm
20:20 15 °C 14.1 °C 1006.7 hPa Calm     94 % 0 mm
20:21 15 °C 14.1 °C 1006.7 hPa Calm     94 % 0 mm
20:22 15 °C 14.1 °C 1006.7 hPa Calm     94 % 0 mm
20:23 15 °C 14.1 °C 1006.7 hPa Calm     94 % 0 mm
20:27 15 °C 14.1 °C 1006.7 hPa Calm     94 % 0 mm
20:28 15 °C 14.1 °C 1006.7 hPa East 1.6 km/h   94 % 0 mm
20:29 15 °C 14.1 °C 1006.3 hPa Calm     94 % 0 mm
20:30 15 °C 14.1 °C 1006.3 hPa Calm     94 % 0 mm
20:31 15 °C 14.1 °C 1006.3 hPa Calm     94 % 0 mm
20:36 15 °C 14.1 °C 1006.3 hPa Calm     94 % 0 mm
20:37 15 °C 14.1 °C 1006.3 hPa Calm     94 % 0 mm
20:38 15 °C 14.1 °C 1006.3 hPa Calm     94 % 0 mm
20:41 14.9 °C 14 °C 1006.3 hPa Calm     94 % 0 mm
20:43 14.9 °C 13.9 °C 1006 hPa Calm     94 % 0 mm
20:45 14.9 °C 13.9 °C 1006 hPa Calm     94 % 0 mm
20:46 14.8 °C 13.9 °C 1006 hPa Calm     94 % 0 mm
20:47 14.8 °C 13.9 °C 1006 hPa Calm     94 % 0 mm
20:48 14.8 °C 13.9 °C 1006 hPa Calm     94 % 0 mm
20:49 14.8 °C 13.8 °C 1006 hPa Calm     94 % 0 mm
20:50 14.8 °C 13.8 °C 1006 hPa Calm     94 % 0 mm
20:51 14.8 °C 13.8 °C 1006 hPa Calm     94 % 0 mm
20:52 14.8 °C 13.9 °C 1006 hPa Calm     94 % 0 mm
20:54 14.8 °C 13.9 °C 1006 hPa Calm     94 % 0 mm
20:56 14.8 °C 13.9 °C 1006 hPa Calm     94 % 0 mm
20:57 14.8 °C 13.9 °C 1006 hPa Calm     94 % 0 mm
20:58 14.8 °C 13.9 °C 1006 hPa Calm     94 % 0 mm
20:59 14.8 °C 13.9 °C 1006 hPa Calm     94 % 0 mm
21:00 14.8 °C 13.9 °C 1006 hPa Calm     94 % 0 mm
21:01 14.9 °C 13.9 °C 1006 hPa Calm     94 % 0 mm
21:03 14.8 °C 13.9 °C 1006 hPa Calm     94 % 0 mm
21:05 14.8 °C 13.9 °C 1006 hPa NNE 1.9 km/h 1.9 km/h 94 % 0 mm
21:06 14.9 °C 13.9 °C 1006 hPa NNE 1.9 km/h   94 % 0 mm
21:07 14.9 °C 13.9 °C 1006 hPa Calm     94 % 0 mm
21:11 14.9 °C 13.9 °C 1006 hPa Calm     94 % 0 mm
21:12 14.9 °C 13.9 °C 1006 hPa Calm     94 % 0 mm
21:15 14.9 °C 13.8 °C 1006 hPa Calm     93 % 0 mm
21:16 14.9 °C 13.8 °C 1006 hPa Calm     93 % 0 mm
21:17 14.9 °C 13.8 °C 1006 hPa Calm     93 % 0 mm
21:18 14.9 °C 13.8 °C 1006 hPa Calm     93 % 0 mm
21:21 14.9 °C 13.8 °C 1006 hPa NNW 1.9 km/h 1.9 km/h 93 % 0 mm
21:22 14.9 °C 13.8 °C 1005.6 hPa Calm     93 % 0 mm
21:23 14.9 °C 13.8 °C 1005.6 hPa NNW 1.9 km/h 1.9 km/h 93 % 0 mm
21:24 14.9 °C 13.8 °C 1005.6 hPa NNW 1.9 km/h   93 % 0 mm
21:26 14.9 °C 13.8 °C 1005.6 hPa Calm     93 % 0 mm
21:28 14.9 °C 13.7 °C 1005.6 hPa Calm     92 % 0 mm
21:30 15 °C 13.7 °C 1005.6 hPa Calm     92 % 0 mm
21:31 15 °C 13.7 °C 1005.6 hPa Calm     92 % 0 mm
21:33 15.1 °C 13.8 °C 1005.6 hPa NW 1.9 km/h 1.9 km/h 92 % 0 mm
21:34 15.1 °C 13.8 °C 1005.6 hPa NW 1.6 km/h 1.6 km/h 92 % 0 mm
21:35 15.1 °C 13.7 °C 1005.6 hPa NW 1.9 km/h 1.9 km/h 91 % 0 mm
21:36 15.2 °C 13.7 °C 1005.6 hPa NW 1.9 km/h   91 % 0 mm
21:37 15.2 °C 13.7 °C 1005.6 hPa NW 1.9 km/h   91 % 0 mm
21:38 15.2 °C 13.8 °C 1005.6 hPa Calm     91 % 0 mm
21:39 15.2 °C 13.8 °C 1005.6 hPa Calm     91 % 0 mm
21:41 15.2 °C 13.8 °C 1005.6 hPa Calm     91 % 0 mm
21:42 15.2 °C 13.8 °C 1005.6 hPa Calm     91 % 0 mm
21:43 15.2 °C 13.8 °C 1005.6 hPa Calm     91 % 0 mm
21:44 15.2 °C 13.8 °C 1005.3 hPa NW 1.9 km/h 1.9 km/h 91 % 0 mm
21:45 15.2 °C 13.8 °C 1005.3 hPa Calm     91 % 0 mm
21:46 15.2 °C 13.8 °C 1005.3 hPa Calm     91 % 0 mm
21:50 15.2 °C 13.8 °C 1005.3 hPa Calm     91 % 0 mm
21:55 15.3 °C 13.7 °C 1005.3 hPa Calm     90 % 0 mm
21:58 15.3 °C 13.7 °C 1005.3 hPa Calm     90 % 0 mm
21:59 15.3 °C 13.7 °C 1005.3 hPa Calm     90 % 0 mm
22:00 15.3 °C 13.7 °C 1005.3 hPa Calm     90 % 0 mm
22:02 15.3 °C 13.7 °C 1005 hPa Calm     90 % 0 mm
22:03 15.2 °C 13.6 °C 1005.3 hPa Calm     90 % 0 mm
22:04 15.2 °C 13.6 °C 1005 hPa Calm     90 % 0 mm
22:05 15.2 °C 13.6 °C 1005 hPa Calm     90 % 0 mm
22:06 15.2 °C 13.6 °C 1005 hPa Calm     90 % 0 mm
22:08 15.2 °C 13.6 °C 1005 hPa Calm     90 % 0 mm
22:11 15.1 °C 13.7 °C 1005 hPa Calm     91 % 0 mm
22:12 15.1 °C 13.7 °C 1005 hPa Calm     91 % 0 mm
22:13 15.1 °C 13.7 °C 1005 hPa Calm     91 % 0 mm
22:15 15.1 °C 13.6 °C 1005 hPa Calm     91 % 0 mm
22:16 15 °C 13.6 °C 1005 hPa Calm     91 % 0 mm
22:18 15 °C 13.6 °C 1005 hPa Calm     91 % 0 mm
22:20 15 °C 13.6 °C 1005 hPa Calm     91 % 0 mm
22:21 14.9 °C 13.5 °C 1005 hPa Calm     91 % 0 mm
22:22 14.9 °C 13.5 °C 1005 hPa Calm     91 % 0 mm
22:23 14.9 °C 13.5 °C 1005 hPa Calm     91 % 0 mm
22:25 14.9 °C 13.7 °C 1005 hPa Calm     92 % 0 mm
22:26 14.9 °C 13.6 °C 1005 hPa Calm     92 % 0 mm
22:27 14.9 °C 13.7 °C 1005 hPa Calm     92 % 0 mm
22:28 14.9 °C 13.6 °C 1005 hPa Calm     92 % 0 mm
22:29 14.9 °C 13.6 °C 1005 hPa Calm     92 % 0 mm
22:30 14.9 °C 13.6 °C 1005 hPa Calm     92 % 0 mm
22:32 14.9 °C 13.8 °C 1005 hPa Calm     93 % 0 mm
22:33 14.8 °C 13.7 °C 1005 hPa Calm     93 % 0 mm
22:34 14.8 °C 13.7 °C 1005 hPa Calm     93 % 0 mm
22:35 14.8 °C 13.7 °C 1004.6 hPa Calm     93 % 0 mm
22:36 14.7 °C 13.6 °C 1004.6 hPa Calm     93 % 0 mm
22:37 14.7 °C 13.6 °C 1004.6 hPa Calm     93 % 0 mm
22:38 14.7 °C 13.6 °C 1004.6 hPa Calm     93 % 0 mm
22:39 14.6 °C 13.5 °C 1005 hPa Calm     93 % 0 mm
22:43 14.6 °C 13.4 °C 1004.6 hPa Calm     93 % 0 mm
22:44 14.6 °C 13.4 °C 1004.6 hPa Calm     93 % 0 mm
22:45 14.5 °C 13.4 °C 1004.6 hPa Calm     93 % 0 mm
22:47 14.4 °C 13.3 °C 1004.6 hPa Calm     93 % 0 mm
22:49 14.4 °C 13.5 °C 1004.6 hPa Calm     94 % 0 mm
22:50 14.4 °C 13.4 °C 1004.6 hPa Calm     94 % 0 mm
22:51 14.4 °C 13.4 °C 1004.6 hPa Calm     94 % 0 mm
22:53 14.3 °C 13.4 °C 1004.6 hPa Calm     94 % 0 mm
22:56 14.3 °C 13.3 °C 1004.6 hPa Calm     94 % 0 mm
22:58 14.2 °C 13.3 °C 1004.6 hPa Calm     94 % 0 mm
22:59 14.2 °C 13.3 °C 1004.6 hPa Calm     94 % 0 mm
23:00 14.2 °C 13.2 °C 1004.6 hPa Calm     94 % 0 mm
23:02 14.1 °C 13.2 °C 1004.6 hPa Calm     94 % 0 mm
23:03 14.1 °C 13.2 °C 1004.6 hPa Calm     94 % 0 mm
23:04 14.1 °C 13.2 °C 1004.6 hPa Calm     94 % 0 mm
23:05 14.1 °C 13.1 °C 1004.6 hPa Calm     94 % 0 mm
23:07 14 °C 13.1 °C 1004.3 hPa Calm     94 % 0 mm
23:08 13.9 °C 13 °C 1004.3 hPa Calm     94 % 0 mm
23:09 13.9 °C 12.9 °C 1004.3 hPa Calm     94 % 0 mm
23:10 13.8 °C 12.9 °C 1004.3 hPa Calm     94 % 0 mm
23:12 13.8 °C 12.8 °C 1004.3 hPa Calm     94 % 0 mm
23:13 13.8 °C 12.8 °C 1004.3 hPa Calm     94 % 0 mm
23:14 13.7 °C 12.8 °C 1004.3 hPa Calm     94 % 0 mm
23:16 13.7 °C 12.9 °C 1004.3 hPa Calm     95 % 0 mm
23:19 13.7 °C 12.9 °C 1004.3 hPa Calm     95 % 0 mm
23:20 13.7 °C 12.9 °C 1004.3 hPa Calm     95 % 0 mm
23:21 13.7 °C 12.9 °C 1003.9 hPa Calm     95 % 0 mm
23:24 13.7 °C 12.9 °C 1003.9 hPa Calm     95 % 0 mm
23:25 13.7 °C 12.9 °C 1003.9 hPa Calm     95 % 0 mm
23:26 13.6 °C 12.8 °C 1003.9 hPa Calm     95 % 0 mm
23:29 13.6 °C 12.8 °C 1003.9 hPa Calm     95 % 0 mm
23:30 13.6 °C 12.8 °C 1003.9 hPa Calm     95 % 0 mm
23:31 13.6 °C 12.8 °C 1003.9 hPa Calm     95 % 0 mm
23:32 13.6 °C 12.8 °C 1003.9 hPa Calm     95 % 0 mm
23:35 13.4 °C 12.7 °C 1003.9 hPa Calm     95 % 0 mm
23:36 13.4 °C 12.7 °C 1003.9 hPa Calm     95 % 0 mm
23:37 13.4 °C 12.7 °C 1003.9 hPa Calm     95 % 0 mm
23:40 13.4 °C 12.6 °C 1003.9 hPa Calm     95 % 0 mm
23:41 13.4 °C 12.6 °C 1003.9 hPa Calm     95 % 0 mm
23:42 13.4 °C 12.6 °C 1003.9 hPa Calm     95 % 0 mm
23:43 13.4 °C 12.6 °C 1003.9 hPa Calm     95 % 0 mm
23:44 13.4 °C 12.6 °C 1003.6 hPa Calm     95 % 0 mm
23:45 13.4 °C 12.8 °C 1003.6 hPa Calm     96 % 0 mm
23:47 13.4 °C 12.8 °C 1003.6 hPa Calm     96 % 0 mm
23:49 13.4 °C 12.8 °C 1003.6 hPa Calm     96 % 0 mm
23:50 13.4 °C 12.8 °C 1003.6 hPa Calm     96 % 0 mm
23:51 13.4 °C 12.8 °C 1003.6 hPa Calm     96 % 0 mm
23:52 13.4 °C 12.8 °C 1003.6 hPa Calm     96 % 0 mm
23:53 13.4 °C 12.8 °C 1003.6 hPa Calm     96 % 0 mm
23:54 13.4 °C 12.8 °C 1003.3 hPa Calm     96 % 0 mm
23:58 13.4 °C 12.8 °C 1003.3 hPa Calm     96 % 0 mm
Park Place, Exeter, Tulare County, California, USA
Compliments of Weather Underground - 3.75 mb